,,PA_Meas_PMT16A,,PR_Meas_QMR101_102,,RH_Meas_QMH101,,SR_Meas_QMS101,,TA_Meas_QMH101,,GenWind,,GenWind,
time,status,PA,status,PR,status,RH,status,SR,status,TA,status,DirAvg,status,SpdAvg,
2011-08-01, 00:00:04,VALID,915.865,VALID,0,VALID,83.9567,VALID,0,VALID,21.5152,VALID,158,VALID,0.777734,
2011-08-01, 00:01:04,VALID,915.846,VALID,0,VALID,83.6746,VALID,0,VALID,21.4957,VALID,158,VALID,1.02227,
2011-08-01, 00:02:04,VALID,915.811,VALID,0,VALID,83.9262,VALID,0,VALID,21.4957,VALID,158,VALID,1.21445,
2011-08-01, 00:03:04,VALID,915.806,VALID,0,VALID,84.3226,VALID,0,VALID,21.455,VALID,158,VALID,0.821875,
2011-08-01, 00:04:04,VALID,915.8,VALID,0,VALID,84.2387,VALID,0,VALID,21.4567,VALID,153,VALID,1.06367,
2011-08-01, 00:05:04,VALID,915.817,VALID,0,VALID,84.3379,VALID,0,VALID,21.4567,VALID,162,VALID,0.990625,
2011-08-01, 00:06:04,VALID,915.777,VALID,0,VALID,84.6657,VALID,0,VALID,21.4567,VALID,149,VALID,1.15078,
2011-08-01, 00:07:04,VALID,915.781,VALID,0,VALID,84.3455,VALID,0,VALID,21.4567,VALID,148,VALID,0.956641,
2011-08-01, 00:08:04,VALID,915.787,VALID,0,VALID,84.658,VALID,0,VALID,21.4762,VALID,148,VALID,0.641016,
2011-08-01, 00:09:04,VALID,915.78,VALID,0,VALID,84.8105,VALID,0,VALID,21.4762,VALID,173,VALID,0.565625,
2011-08-01, 00:10:04,VALID,915.776,VALID,0,VALID,83.9719,VALID,0,VALID,21.4778,VALID,144,VALID,0.481641,
2011-08-01, 00:11:04,VALID,915.755,VALID,0,VALID,83.8195,VALID,0,VALID,21.5152,VALID,132,VALID,1.21758,
2011-08-01, 00:12:04,VALID,915.767,VALID,0,VALID,83.9033,VALID,0,VALID,21.5559,VALID,162,VALID,1.19219,
2011-08-01, 00:13:04,VALID,915.758,VALID,0,VALID,83.6899,VALID,0,VALID,21.5347,VALID,146,VALID,0.846484,
2011-08-01, 00:14:04,VALID,915.774,VALID,0,VALID,83.8195,VALID,0,VALID,21.5559,VALID,146,VALID,0.494531,
2011-08-01, 00:15:04,VALID,915.757,VALID,0,VALID,83.3316,VALID,0,VALID,21.5347,VALID,169,VALID,1.21367,
2011-08-01, 00:16:04,VALID,915.781,VALID,0,VALID,83.0038,VALID,0.107441,VALID,21.5526,VALID,178,VALID,0.940234,
2011-08-01, 00:17:04,VALID,915.817,VALID,0,VALID,82.8132,VALID,0,VALID,21.5526,VALID,178,VALID,0.980469,
2011-08-01, 00:18:04,VALID,915.786,VALID,0,VALID,82.7827,VALID,0,VALID,21.5331,VALID,178,VALID,0.901172,
2011-08-01, 00:19:04,VALID,915.774,VALID,0,VALID,82.5006,VALID,0.107441,VALID,21.5737,VALID,171,VALID,0.944531,
2011-08-01, 00:20:04,VALID,915.755,VALID,0,VALID,82.1957,VALID,0.107441,VALID,21.5721,VALID,167,VALID,1.07813,
2011-08-01, 00:21:04,VALID,915.776,VALID,0,VALID,82.2033,VALID,0.107441,VALID,21.5916,VALID,153,VALID,0.830859,
2011-08-01, 00:22:04,VALID,915.738,VALID,0,VALID,82.0584,VALID,0.107441,VALID,21.6323,VALID,152,VALID,0.826563,
2011-08-01, 00:23:04,VALID,915.753,VALID,0,VALID,82.0813,VALID,0,VALID,21.6306,VALID,145,VALID,0.914844,
2011-08-01, 00:24:04,VALID,915.734,VALID,0,VALID,81.9517,VALID,0,VALID,21.6306,VALID,145,VALID,0.749219,
2011-08-01, 00:25:04,VALID,915.743,VALID,0,VALID,82.4167,VALID,0.107441,VALID,21.6111,VALID,145,VALID,0.496875,
2011-08-01, 00:26:04,VALID,915.714,VALID,0,VALID,82.2262,VALID,0.107441,VALID,21.5721,VALID,135,VALID,1.23398,
2011-08-01, 00:27:04,VALID,915.728,VALID,0,VALID,82.8589,VALID,0,VALID,21.5526,VALID,139,VALID,0.761719,
2011-08-01, 00:28:04,VALID,915.736,VALID,0,VALID,82.7827,VALID,0.107441,VALID,21.5526,VALID,93,VALID,0.995703,
2011-08-01, 00:29:04,VALID,915.701,VALID,0,VALID,82.4549,VALID,0.107441,VALID,21.5526,VALID,135,VALID,1.22187,
2011-08-01, 00:30:04,VALID,915.68,VALID,0,VALID,82.5235,VALID,0.107441,VALID,21.5526,VALID,123,VALID,0.905078,
2011-08-01, 00:31:04,VALID,915.659,VALID,0,VALID,82.3481,VALID,0,VALID,21.5737,VALID,137,VALID,1.49336,
2011-08-01, 00:32:04,VALID,915.632,VALID,0,VALID,82.3786,VALID,0,VALID,21.5542,VALID,129,VALID,1.43945,
2011-08-01, 00:33:04,VALID,915.601,VALID,0,VALID,82.1271,VALID,0,VALID,21.5542,VALID,120,VALID,1.9457,
2011-08-01, 00:34:04,VALID,915.606,VALID,0,VALID,82.4167,VALID,0,VALID,21.5542,VALID,97,VALID,0.988672,
2011-08-01, 00:35:04,VALID,915.576,VALID,0,VALID,82.31,VALID,0,VALID,21.5737,VALID,111,VALID,1.18242,
2011-08-01, 00:36:04,VALID,915.557,VALID,0,VALID,82.432,VALID,0,VALID,21.5526,VALID,127,VALID,1.50078,
2011-08-01, 00:37:04,VALID,915.57,VALID,0,VALID,82.5006,VALID,0,VALID,21.5542,VALID,138,VALID,0.796875,
2011-08-01, 00:38:04,VALID,915.55,VALID,0,VALID,82.1652,VALID,0,VALID,21.5542,VALID,130,VALID,1.85625,
2011-08-01, 00:39:04,VALID,915.563,VALID,0,VALID,82.1271,VALID,0,VALID,21.5737,VALID,120,VALID,1.39414,
2011-08-01, 00:40:04,VALID,915.559,VALID,0,VALID,82.4244,VALID,0,VALID,21.5542,VALID,104,VALID,0.866797,
2011-08-01, 00:41:04,VALID,915.537,VALID,0,VALID,82.6607,VALID,0,VALID,21.5737,VALID,110,VALID,0.821094,
2011-08-01, 00:42:04,VALID,915.564,VALID,0,VALID,82.6455,VALID,0,VALID,21.5331,VALID,119,VALID,1.23438,
2011-08-01, 00:43:04,VALID,915.556,VALID,0,VALID,82.6607,VALID,0,VALID,21.5152,VALID,135,VALID,0.764453,
2011-08-01, 00:44:04,VALID,915.567,VALID,0,VALID,82.7369,VALID,0,VALID,21.5152,VALID,136,VALID,1.05664,
2011-08-01, 00:45:04,VALID,915.549,VALID,0,VALID,82.554,VALID,0,VALID,21.5152,VALID,125,VALID,0.914844,
2011-08-01, 00:46:04,VALID,915.566,VALID,0,VALID,82.371,VALID,0,VALID,21.5347,VALID,125,VALID,0.707812,
2011-08-01, 00:47:04,VALID,915.562,VALID,0,VALID,82.6836,VALID,0,VALID,21.5347,VALID,125,VALID,0.921875,
2011-08-01, 00:48:04,VALID,915.497,VALID,0,VALID,82.6302,VALID,0,VALID,21.5152,VALID,138,VALID,1.94727,
2011-08-01, 00:49:04,VALID,915.519,VALID,0,VALID,82.6683,VALID,0,VALID,21.5347,VALID,125,VALID,0.875391,
2011-08-01, 00:50:04,VALID,915.506,VALID,0,VALID,82.8284,VALID,0,VALID,21.5152,VALID,125,VALID,0.635156,
2011-08-01, 00:51:04,VALID,915.512,VALID,0,VALID,83.2248,VALID,0,VALID,21.5152,VALID,125,VALID,0.957422,
2011-08-01, 00:52:04,VALID,915.514,VALID,0,VALID,83.2096,VALID,0,VALID,21.4957,VALID,125,VALID,0.717969,
2011-08-01, 00:53:04,VALID,915.493,VALID,0,VALID,83.4078,VALID,0,VALID,21.4762,VALID,125,VALID,1.01914,
2011-08-01, 00:54:04,VALID,915.47,VALID,0,VALID,83.5374,VALID,0,VALID,21.455,VALID,125,VALID,1.00742,
2011-08-01, 00:55:04,VALID,915.483,VALID,0,VALID,83.8042,VALID,0,VALID,21.4567,VALID,125,VALID,0.739844,
2011-08-01, 00:56:04,VALID,915.481,VALID,0,VALID,83.6289,VALID,0,VALID,21.4567,VALID,125,VALID,1.06211,
2011-08-01, 00:57:04,VALID,915.474,VALID,0,VALID,84.4446,VALID,0,VALID,21.4778,VALID,125,VALID,0.111328,
2011-08-01, 00:58:04,VALID,915.438,VALID,0,VALID,84.2845,VALID,0,VALID,21.3981,VALID,137,VALID,0.642969,
2011-08-01, 00:59:04,VALID,915.44,VALID,0,VALID,84.3683,VALID,0,VALID,21.3786,VALID,137,VALID,0.65,
2011-08-01, 01:00:04,VALID,915.446,VALID,0,VALID,84.5513,VALID,0,VALID,21.3786,VALID,137,VALID,0.547656,
2011-08-01, 01:01:04,VALID,915.431,VALID,0,VALID,84.6809,VALID,0,VALID,21.3591,VALID,137,VALID,0.573438,
2011-08-01, 01:02:04,VALID,915.421,VALID,0,VALID,84.7953,VALID,0,VALID,21.3591,VALID,137,VALID,0.516016,
2011-08-01, 01:03:04,VALID,915.403,VALID,0,VALID,84.6885,VALID,0,VALID,21.3201,VALID,137,VALID,0.652734,
2011-08-01, 01:04:04,VALID,915.409,VALID,0,VALID,84.9401,VALID,0,VALID,21.3201,VALID,137,VALID,0.166016,
2011-08-01, 01:05:04,VALID,915.397,VALID,0,VALID,85.306,VALID,0,VALID,21.3006,VALID,137,VALID,0.343359,
2011-08-01, 01:06:04,VALID,915.419,VALID,0,VALID,85.024,VALID,0,VALID,21.3006,VALID,137,VALID,0.558203,
2011-08-01, 01:07:04,VALID,915.419,VALID,0,VALID,84.841,VALID,0,VALID,21.2811,VALID,137,VALID,0.819531,
2011-08-01, 01:08:04,VALID,915.396,VALID,0,VALID,84.9553,VALID,0,VALID,21.2827,VALID,137,VALID,0.6125,
2011-08-01, 01:09:04,VALID,915.383,VALID,0,VALID,85.1612,VALID,0,VALID,21.2421,VALID,137,VALID,0.274219,
2011-08-01, 01:10:04,VALID,915.386,VALID,0,VALID,85.2755,VALID,0,VALID,21.221,VALID,137,VALID,0.485938,
2011-08-01, 01:11:04,VALID,915.38,VALID,0,VALID,85.2908,VALID,0,VALID,21.221,VALID,137,VALID,0.503906,
2011-08-01, 01:12:04,VALID,915.343,VALID,0,VALID,85.3136,VALID,0,VALID,21.2226,VALID,168,VALID,0.785937,
2011-08-01, 01:13:04,VALID,915.364,VALID,0,VALID,85.3365,VALID,0,VALID,21.2226,VALID,168,VALID,0.730078,
2011-08-01, 01:14:04,VALID,915.362,VALID,0,VALID,85.367,VALID,0,VALID,21.1819,VALID,168,VALID,0.725391,
2011-08-01, 01:15:04,VALID,915.372,VALID,0,VALID,85.6186,VALID,0,VALID,21.1836,VALID,168,VALID,0.566406,
2011-08-01, 01:16:04,VALID,915.378,VALID,0,VALID,85.6643,VALID,0,VALID,21.1624,VALID,168,VALID,0.819141,
2011-08-01, 01:17:04,VALID,915.366,VALID,0,VALID,85.5728,VALID,0,VALID,21.164,VALID,159,VALID,1.11367,
2011-08-01, 01:18:04,VALID,915.399,VALID,0,VALID,85.771,VALID,0,VALID,21.1429,VALID,159,VALID,0.809375,
2011-08-01, 01:19:04,VALID,915.395,VALID,0,VALID,85.611,VALID,0,VALID,21.1429,VALID,159,VALID,0.769531,
2011-08-01, 01:20:04,VALID,915.37,VALID,0,VALID,85.9693,VALID,0,VALID,21.1445,VALID,159,VALID,0.718359,
2011-08-01, 01:21:04,VALID,915.352,VALID,0,VALID,86.137,VALID,0,VALID,21.164,VALID,159,VALID,0.883984,
2011-08-01, 01:22:04,VALID,915.336,VALID,0,VALID,86.015,VALID,0,VALID,21.164,VALID,191,VALID,1.22812,
2011-08-01, 01:23:04,VALID,915.323,VALID,0,VALID,86.5182,VALID,0,VALID,21.1445,VALID,191,VALID,0.954297,
2011-08-01, 01:24:04,VALID,915.316,VALID,0,VALID,86.1522,VALID,0,VALID,21.1039,VALID,175,VALID,1.62695,
2011-08-01, 01:25:04,VALID,915.272,VALID,0,VALID,86.4724,VALID,0,VALID,21.086,VALID,167,VALID,1.56758,
2011-08-01, 01:26:04,VALID,915.271,VALID,0,VALID,86.6554,VALID,0,VALID,21.0665,VALID,168,VALID,1.2332,
2011-08-01, 01:27:04,VALID,915.233,VALID,0,VALID,86.8307,VALID,0,VALID,21.0275,VALID,168,VALID,1.06758,
2011-08-01, 01:28:04,VALID,915.212,VALID,0,VALID,86.8307,VALID,0,VALID,21.008,VALID,168,VALID,1.0457,
2011-08-01, 01:29:04,VALID,915.207,VALID,0,VALID,86.846,VALID,0,VALID,20.9885,VALID,168,VALID,1.425,
2011-08-01, 01:30:04,VALID,915.172,VALID,0,VALID,87.067,VALID,0,VALID,20.9495,VALID,162,VALID,1.4082,
2011-08-01, 01:31:04,VALID,915.136,VALID,0,VALID,87.4406,VALID,0,VALID,20.9316,VALID,162,VALID,0.702344,
2011-08-01, 01:32:04,VALID,915.114,VALID,0,VALID,87.7226,VALID,0,VALID,20.9105,VALID,162,VALID,0.605859,
2011-08-01, 01:33:04,VALID,915.077,VALID,0,VALID,87.6693,VALID,0,VALID,20.8519,VALID,162,VALID,1.17969,
2011-08-01, 01:34:04,VALID,915.044,VALID,0,VALID,87.8446,VALID,0,VALID,20.8129,VALID,162,VALID,0.639063,
2011-08-01, 01:35:04,VALID,915.045,VALID,0,VALID,87.8827,VALID,0,VALID,20.8145,VALID,163,VALID,0.868359,
2011-08-01, 01:36:04,VALID,915.025,VALID,0,VALID,87.9666,VALID,0,VALID,20.7739,VALID,151,VALID,0.41875,
2011-08-01, 01:37:04,VALID,915,VALID,0,VALID,87.9285,VALID,0,VALID,20.7739,VALID,179,VALID,0.804688,
2011-08-01, 01:38:04,VALID,914.997,VALID,0,VALID,87.9818,VALID,0,VALID,20.7755,VALID,175,VALID,0.657422,
2011-08-01, 01:39:04,VALID,915.008,VALID,0,VALID,88.0809,VALID,0,VALID,20.7154,VALID,167,VALID,0.9375,
2011-08-01, 01:40:04,VALID,915.006,VALID,0,VALID,88.2639,VALID,0,VALID,20.6959,VALID,168,VALID,1.31328,
2011-08-01, 01:41:04,VALID,914.967,VALID,0,VALID,88.4697,VALID,0,VALID,20.6569,VALID,168,VALID,0.898047,
2011-08-01, 01:42:04,VALID,914.967,VALID,0,VALID,88.5688,VALID,0,VALID,20.6585,VALID,167,VALID,0.903516,
2011-08-01, 01:43:04,VALID,914.939,VALID,0,VALID,88.668,VALID,0,VALID,20.6585,VALID,167,VALID,1.34531,
2011-08-01, 01:44:04,VALID,914.935,VALID,0,VALID,88.7442,VALID,0,VALID,20.6179,VALID,158,VALID,1.58789,
2011-08-01, 01:45:04,VALID,914.949,VALID,0,VALID,88.5917,VALID,0,VALID,20.5984,VALID,181,VALID,1.38125,
2011-08-01, 01:46:04,VALID,914.919,VALID,0,VALID,88.6527,VALID,0,VALID,20.5984,VALID,186,VALID,0.971875,
2011-08-01, 01:47:04,VALID,914.907,VALID,0,VALID,88.6527,VALID,0,VALID,20.6194,VALID,177,VALID,0.985156,
2011-08-01, 01:48:04,VALID,914.857,VALID,0,VALID,88.6375,VALID,0,VALID,20.6179,VALID,162,VALID,0.4125,
2011-08-01, 01:49:04,VALID,914.883,VALID,0,VALID,88.7823,VALID,0,VALID,20.5984,VALID,162,VALID,0.907422,
2011-08-01, 01:50:04,VALID,914.877,VALID,0,VALID,88.7594,VALID,0,VALID,20.5804,VALID,164,VALID,0.992969,
2011-08-01, 01:51:04,VALID,914.861,VALID,0,VALID,88.828,VALID,0,VALID,20.5594,VALID,156,VALID,1.06953,
2011-08-01, 01:52:04,VALID,914.861,VALID,0,VALID,88.828,VALID,0,VALID,20.5804,VALID,166,VALID,1.08477,
2011-08-01, 01:53:04,VALID,914.87,VALID,0,VALID,88.9043,VALID,0,VALID,20.5609,VALID,156,VALID,0.941406,
2011-08-01, 01:54:04,VALID,914.828,VALID,0,VALID,88.7671,VALID,0,VALID,20.5399,VALID,169,VALID,1.27617,
2011-08-01, 01:55:04,VALID,914.844,VALID,0,VALID,88.6603,VALID,0,VALID,20.5594,VALID,169,VALID,1.11523,
2011-08-01, 01:56:04,VALID,914.853,VALID,0,VALID,88.5612,VALID,0,VALID,20.5399,VALID,169,VALID,1.35078,
2011-08-01, 01:57:04,VALID,914.828,VALID,0,VALID,88.5612,VALID,0,VALID,20.5804,VALID,169,VALID,0.674609,
2011-08-01, 01:58:04,VALID,914.814,VALID,0,VALID,88.5841,VALID,0,VALID,20.5609,VALID,169,VALID,0.555859,
2011-08-01, 01:59:04,VALID,914.81,VALID,0,VALID,88.5384,VALID,0,VALID,20.5399,VALID,141,VALID,0.718359,
2011-08-01, 02:00:04,VALID,914.817,VALID,0,VALID,88.4011,VALID,0,VALID,20.5609,VALID,139,VALID,0.728516,
2011-08-01, 02:01:04,VALID,914.829,VALID,0,VALID,88.4697,VALID,0,VALID,20.5399,VALID,139,VALID,0.478516,
2011-08-01, 02:02:04,VALID,914.86,VALID,0,VALID,88.4926,VALID,0,VALID,20.5414,VALID,139,VALID,0.899609,
2011-08-01, 02:03:04,VALID,914.829,VALID,0,VALID,88.3249,VALID,0,VALID,20.5414,VALID,92,VALID,0.733984,
2011-08-01, 02:04:04,VALID,914.836,VALID,0,VALID,88.3325,VALID,0,VALID,20.5204,VALID,124,VALID,0.671875,
2011-08-01, 02:05:04,VALID,914.817,VALID,0,VALID,87.776,VALID,0,VALID,20.5399,VALID,128,VALID,2.42422,
2011-08-01, 02:06:04,VALID,914.845,VALID,0,VALID,87.5397,VALID,0,VALID,20.5999,VALID,120,VALID,1.025,
2011-08-01, 02:07:04,VALID,914.817,VALID,0,VALID,86.9069,VALID,0,VALID,20.678,VALID,120,VALID,1.62617,
2011-08-01, 02:08:04,VALID,914.779,VALID,0,VALID,85.8702,VALID,0,VALID,20.7739,VALID,114,VALID,1.54297,
2011-08-01, 02:09:04,VALID,914.796,VALID,0,VALID,85.4509,VALID,0,VALID,20.873,VALID,113,VALID,1.51914,
2011-08-01, 02:10:04,VALID,914.773,VALID,0,VALID,85.2679,VALID,0,VALID,20.891,VALID,103,VALID,1.23516,
2011-08-01, 02:11:04,VALID,914.752,VALID,0,VALID,84.8486,VALID,0,VALID,20.9284,VALID,128,VALID,1.51016,
2011-08-01, 02:12:04,VALID,914.731,VALID,0,VALID,84.5208,VALID,0,VALID,20.9885,VALID,107,VALID,2.26289,
2011-08-01, 02:13:04,VALID,914.746,VALID,0,VALID,84.2235,VALID,0,VALID,21.0259,VALID,115,VALID,1.5625,
2011-08-01, 02:14:04,VALID,914.714,VALID,0,VALID,83.8804,VALID,0,VALID,21.0665,VALID,124,VALID,1.21484,
2011-08-01, 02:15:04,VALID,914.7,VALID,0,VALID,83.9262,VALID,0,VALID,21.086,VALID,95,VALID,1.77344,
2011-08-01, 02:16:04,VALID,914.674,VALID,0,VALID,83.3316,VALID,0,VALID,21.1055,VALID,117,VALID,1.94062,
2011-08-01, 02:17:04,VALID,914.713,VALID,0,VALID,83.0266,VALID,0.107441,VALID,21.1234,VALID,119,VALID,2.32188,
2011-08-01, 02:18:04,VALID,914.716,VALID,0,VALID,82.9351,VALID,0,VALID,21.1836,VALID,135,VALID,1.83164,
2011-08-01, 02:19:04,VALID,914.67,VALID,0,VALID,82.8284,VALID,0,VALID,21.2031,VALID,95,VALID,2.01484,
2011-08-01, 02:20:04,VALID,914.681,VALID,0,VALID,82.3786,VALID,0,VALID,21.221,VALID,103,VALID,2.1875,
2011-08-01, 02:21:04,VALID,914.704,VALID,0,VALID,82.5845,VALID,0.107441,VALID,21.2616,VALID,78,VALID,0.977344,
2011-08-01, 02:22:04,VALID,914.688,VALID,0,VALID,82.3863,VALID,0.107441,VALID,21.2421,VALID,104,VALID,1.81445,
2011-08-01, 02:23:04,VALID,914.668,VALID,0,VALID,81.9898,VALID,0.107441,VALID,21.2405,VALID,95,VALID,1.81953,
2011-08-01, 02:24:04,VALID,914.665,VALID,0,VALID,81.906,VALID,0.107441,VALID,21.3201,VALID,98,VALID,2.33242,
2011-08-01, 02:25:04,VALID,914.662,VALID,0,VALID,80.9302,VALID,0.107441,VALID,21.3185,VALID,110,VALID,2.45078,
2011-08-01, 02:26:04,VALID,914.653,VALID,0,VALID,80.8616,VALID,0,VALID,21.3981,VALID,88,VALID,2.16094,
2011-08-01, 02:27:04,VALID,914.628,VALID,0,VALID,81.0903,VALID,0.107441,VALID,21.4177,VALID,86,VALID,1.8332,
2011-08-01, 02:28:04,VALID,914.652,VALID,0,VALID,81.6697,VALID,0.107441,VALID,21.377,VALID,106,VALID,1.64414,
2011-08-01, 02:29:04,VALID,914.639,VALID,0,VALID,82.0432,VALID,0.107441,VALID,21.3591,VALID,86,VALID,1.25273,
2011-08-01, 02:30:04,VALID,914.577,VALID,0,VALID,82.5159,VALID,0.107441,VALID,21.3006,VALID,102,VALID,1.75547,
2011-08-01, 02:31:04,VALID,914.59,VALID,0,VALID,82.6455,VALID,0.107441,VALID,21.2421,VALID,96,VALID,1.99102,
2011-08-01, 02:32:04,VALID,914.589,VALID,0,VALID,82.8742,VALID,0.107441,VALID,21.1819,VALID,102,VALID,1.62734,
2011-08-01, 02:33:04,VALID,914.586,VALID,0,VALID,82.7293,VALID,0.107441,VALID,21.1445,VALID,109,VALID,1.53242,
2011-08-01, 02:34:04,VALID,914.599,VALID,0,VALID,82.9733,VALID,0,VALID,21.125,VALID,97,VALID,1.75352,
2011-08-01, 02:35:04,VALID,914.602,VALID,0,VALID,83.2172,VALID,0.107441,VALID,21.1445,VALID,85,VALID,1.36328,
2011-08-01, 02:36:04,VALID,914.593,VALID,0,VALID,83.5526,VALID,0.107441,VALID,21.125,VALID,92,VALID,1.38242,
2011-08-01, 02:37:04,VALID,914.57,VALID,0,VALID,83.5069,VALID,0.107441,VALID,21.086,VALID,102,VALID,1.41875,
2011-08-01, 02:38:04,VALID,914.545,VALID,0,VALID,83.8271,VALID,0,VALID,21.086,VALID,99,VALID,1.39609,
2011-08-01, 02:39:04,VALID,914.501,VALID,0,VALID,84.0177,VALID,0.107441,VALID,21.0665,VALID,116,VALID,1.16758,
2011-08-01, 02:40:04,VALID,914.504,VALID,0,VALID,83.9338,VALID,0.107441,VALID,21.0064,VALID,117,VALID,0.978906,
2011-08-01, 02:41:04,VALID,914.481,VALID,0,VALID,84.2464,VALID,0.107441,VALID,21.0064,VALID,114,VALID,1.32148,
2011-08-01, 02:42:04,VALID,914.496,VALID,0,VALID,84.5361,VALID,0.107441,VALID,20.9885,VALID,128,VALID,1.47109,
2011-08-01, 02:43:04,VALID,914.51,VALID,0,VALID,85.024,VALID,0.107441,VALID,20.9284,VALID,125,VALID,0.459766,
2011-08-01, 02:44:04,VALID,914.518,VALID,0,VALID,85.2527,VALID,0.107441,VALID,20.93,VALID,123,VALID,1.01836,
2011-08-01, 02:45:04,VALID,914.473,VALID,0,VALID,85.4432,VALID,0,VALID,20.8714,VALID,126,VALID,1.72852,
2011-08-01, 02:46:04,VALID,914.503,VALID,0,VALID,85.8702,VALID,0,VALID,20.8535,VALID,121,VALID,0.658594,
2011-08-01, 02:47:04,VALID,914.462,VALID,0,VALID,86.0684,VALID,0,VALID,20.8145,VALID,101,VALID,0.90625,
2011-08-01, 02:48:04,VALID,914.479,VALID,0,VALID,84.5589,VALID,0,VALID,20.8145,VALID,97,VALID,2.41992,
2011-08-01, 02:49:04,VALID,914.512,VALID,0,VALID,84.437,VALID,0,VALID,20.891,VALID,90,VALID,0.871875,
2011-08-01, 02:50:04,VALID,914.483,VALID,0,VALID,84.597,VALID,0,VALID,20.9316,VALID,121,VALID,1.4957,
2011-08-01, 02:51:04,VALID,914.467,VALID,0,VALID,84.7648,VALID,0,VALID,20.891,VALID,132,VALID,0.661328,
2011-08-01, 02:52:04,VALID,914.467,VALID,0,VALID,84.5437,VALID,0,VALID,20.9105,VALID,126,VALID,1.68672,
2011-08-01, 02:53:04,VALID,914.493,VALID,0,VALID,84.8715,VALID,0,VALID,20.912,VALID,121,VALID,0.88125,
2011-08-01, 02:54:04,VALID,914.507,VALID,0,VALID,84.5589,VALID,0,VALID,20.8925,VALID,129,VALID,1.17148,
2011-08-01, 02:55:04,VALID,914.479,VALID,0,VALID,84.7495,VALID,0,VALID,20.891,VALID,140,VALID,0.527344,
2011-08-01, 02:56:04,VALID,914.487,VALID,0,VALID,85.0926,VALID,0,VALID,20.8714,VALID,125,VALID,0.823828,
2011-08-01, 02:57:04,VALID,914.475,VALID,0,VALID,85.1078,VALID,0,VALID,20.8324,VALID,142,VALID,1.06406,
2011-08-01, 02:58:04,VALID,914.455,VALID,0,VALID,85.024,VALID,0,VALID,20.8535,VALID,168,VALID,0.950781,
2011-08-01, 02:59:04,VALID,914.45,VALID,0,VALID,84.8105,VALID,0,VALID,20.834,VALID,132,VALID,1.24414,
2011-08-01, 03:00:04,VALID,914.441,VALID,0,VALID,84.7571,VALID,0,VALID,20.8535,VALID,132,VALID,0.85625,
2011-08-01, 03:01:04,VALID,914.444,VALID,0,VALID,84.7114,VALID,0,VALID,20.8925,VALID,132,VALID,0.526953,
2011-08-01, 03:02:04,VALID,914.375,VALID,0,VALID,84.254,VALID,0,VALID,20.8714,VALID,132,VALID,0.613672,
2011-08-01, 03:03:04,VALID,914.382,VALID,0,VALID,84.4141,VALID,0,VALID,20.912,VALID,132,VALID,0.805859,
2011-08-01, 03:04:04,VALID,914.351,VALID,0,VALID,83.7508,VALID,0,VALID,20.8714,VALID,139,VALID,2.00664,
2011-08-01, 03:05:04,VALID,914.361,VALID,0,VALID,83.9414,VALID,0,VALID,20.9495,VALID,146,VALID,0.810938,
2011-08-01, 03:06:04,VALID,914.348,VALID,0,VALID,83.8728,VALID,0,VALID,20.9511,VALID,146,VALID,1.18398,
2011-08-01, 03:07:04,VALID,914.363,VALID,0,VALID,83.5908,VALID,0,VALID,20.9706,VALID,162,VALID,1.1125,
2011-08-01, 03:08:04,VALID,914.353,VALID,0,VALID,84.01,VALID,0,VALID,20.9706,VALID,35,VALID,1.37812,
2011-08-01, 03:09:04,VALID,914.365,VALID,0,VALID,84.1091,VALID,0,VALID,20.9495,VALID,64,VALID,0.317578,
2011-08-01, 03:10:04,VALID,914.409,VALID,0,VALID,83.4917,VALID,0,VALID,20.9495,VALID,148,VALID,0.861719,
2011-08-01, 03:11:04,VALID,914.392,VALID,0,VALID,82.897,VALID,0,VALID,20.969,VALID,151,VALID,1.1043,
2011-08-01, 03:12:04,VALID,914.39,VALID,0,VALID,83.202,VALID,0,VALID,21.0096,VALID,151,VALID,0.914453,
2011-08-01, 03:13:04,VALID,914.411,VALID,0,VALID,83.1867,VALID,0,VALID,20.9885,VALID,151,VALID,0.825,
2011-08-01, 03:14:04,VALID,914.39,VALID,0,VALID,83.2172,VALID,0,VALID,21.0096,VALID,151,VALID,0.948828,
2011-08-01, 03:15:04,VALID,914.36,VALID,0,VALID,83.3621,VALID,0,VALID,20.9901,VALID,151,VALID,0.874609,
2011-08-01, 03:16:04,VALID,914.349,VALID,0,VALID,83.2401,VALID,0,VALID,20.9901,VALID,151,VALID,1.12031,
2011-08-01, 03:17:04,VALID,914.336,VALID,0,VALID,83.5145,VALID,0,VALID,20.9706,VALID,176,VALID,1.05586,
2011-08-01, 03:18:04,VALID,914.336,VALID,0,VALID,84.6123,VALID,0,VALID,20.93,VALID,108,VALID,1.08945,
2011-08-01, 03:19:04,VALID,914.321,VALID,0,VALID,84.2083,VALID,0,VALID,20.8925,VALID,116,VALID,1.08398,
2011-08-01, 03:20:04,VALID,914.32,VALID,0,VALID,84.3531,VALID,0,VALID,20.8324,VALID,146,VALID,0.882031,
2011-08-01, 03:21:04,VALID,914.323,VALID,0,VALID,84.254,VALID,0,VALID,20.8324,VALID,140,VALID,1.52031,
2011-08-01, 03:22:04,VALID,914.351,VALID,0,VALID,84.5208,VALID,0,VALID,20.8535,VALID,140,VALID,0.594531,
2011-08-01, 03:23:04,VALID,914.33,VALID,0,VALID,84.2921,VALID,0,VALID,20.8324,VALID,116,VALID,0.798047,
2011-08-01, 03:24:04,VALID,914.287,VALID,0,VALID,83.8195,VALID,0,VALID,20.8129,VALID,145,VALID,1.39492,
2011-08-01, 03:25:04,VALID,914.262,VALID,0,VALID,83.5298,VALID,0,VALID,20.8324,VALID,134,VALID,1.40977,
2011-08-01, 03:26:04,VALID,914.246,VALID,0,VALID,83.9796,VALID,0,VALID,20.8535,VALID,135,VALID,0.852344,
2011-08-01, 03:27:04,VALID,914.22,VALID,0,VALID,83.1791,VALID,0,VALID,20.8714,VALID,128,VALID,1.56641,
2011-08-01, 03:28:04,VALID,914.183,VALID,0,VALID,83.2172,VALID,0,VALID,20.912,VALID,123,VALID,1.33984,
2011-08-01, 03:29:04,VALID,914.189,VALID,0,VALID,82.8589,VALID,0,VALID,20.891,VALID,121,VALID,2.25859,
2011-08-01, 03:30:04,VALID,914.21,VALID,0,VALID,82.9275,VALID,0,VALID,20.9105,VALID,96,VALID,1.79414,
2011-08-01, 03:31:04,VALID,914.196,VALID,0,VALID,82.3024,VALID,0.107441,VALID,20.93,VALID,126,VALID,2.20781,
2011-08-01, 03:32:04,VALID,914.177,VALID,0,VALID,82.4015,VALID,0,VALID,20.9479,VALID,103,VALID,1.41836,
2011-08-01, 03:33:04,VALID,914.169,VALID,0,VALID,82.3405,VALID,0,VALID,20.9674,VALID,111,VALID,1.71328,
2011-08-01, 03:34:04,VALID,914.161,VALID,0,VALID,82.2643,VALID,0.107441,VALID,21.008,VALID,112,VALID,1.18477,
2011-08-01, 03:35:04,VALID,914.163,VALID,0,VALID,82.2338,VALID,0.107441,VALID,20.9869,VALID,154,VALID,1.12734,
2011-08-01, 03:36:04,VALID,914.165,VALID,0,VALID,82.0889,VALID,0.107441,VALID,21.0064,VALID,160,VALID,1.29258,
2011-08-01, 03:37:04,VALID,914.188,VALID,0,VALID,81.7535,VALID,0,VALID,21.0275,VALID,118,VALID,1.36172,
2011-08-01, 03:38:04,VALID,914.175,VALID,0,VALID,82.0661,VALID,0.107441,VALID,21.0048,VALID,189,VALID,0.9375,
2011-08-01, 03:39:04,VALID,914.177,VALID,0,VALID,82.0203,VALID,0.107441,VALID,21.0454,VALID,135,VALID,1.12695,
2011-08-01, 03:40:04,VALID,914.196,VALID,0,VALID,82.31,VALID,0.107441,VALID,21.0454,VALID,136,VALID,1.34922,
2011-08-01, 03:41:04,VALID,914.178,VALID,0,VALID,81.8755,VALID,0.107441,VALID,21.0259,VALID,119,VALID,1.30078,
2011-08-01, 03:42:04,VALID,914.138,VALID,0,VALID,81.1741,VALID,0,VALID,21.0275,VALID,130,VALID,1.34805,
2011-08-01, 03:43:04,VALID,914.137,VALID,0,VALID,81.6697,VALID,0.107441,VALID,21.0649,VALID,141,VALID,1.36484,